Warwick, RI

3:20 AM EDT on July 29, 2016 (GMT -0400)
Green State

Weather History for KPVD - November, 2013

Change the Weather History Date:

Sunday, November 24, 2013

  Actual Average Record
Temperature  
Mean Temperature 26 °F 42 °F  
Max Temperature 31 °F 50 °F 73 °F (1979)
Min Temperature 21 °F 34 °F 6 °F (1989)
Degree Days  
Heating Degree Days 39 23  
Month to date heating degree days 504 471  
Since 1 July heating degree days 917 929  
Cooling Degree Days 0 0  
Month to date cooling degree days 0 0  
Year to date cooling degree days 892 744  
Moisture  
Dew Point 1 °F    
Average Humidity 38    
Maximum Humidity 52    
Minimum Humidity 23    
Precipitation  
Precipitation 0.00 in 0.16 in 2.14 in (1923)
Month to date precipitation 1.29 3.57  
Year to date precipitation 37.30 42.02  
Snow  
Snow 0.00 in 0.10 in 2.70 in (1936)
Month to date snowfall 0.1 0.9  
Since 1 July snowfall 0.1 0.9  
Since 1 September snowfall 0.1 0.9  
Snow Depth 0.00 in    
Sea Level Pressure  
Sea Level Pressure 30.00 in    
Wind  
Wind Speed 19 mph (NW)    
Max Wind Speed 36 mph    
Max Gust Speed 48 mph    
Visibility 10 miles    
Events      
T = Trace of Precipitation, MM = Missing Value Source: NWS Daily Summary

Daily Weather History Graph

Daily Weather History Graph

Search for Another Location

Airport or City:

Trip Planner

Search our weather history database for the weather conditions in past years. The results will help you decide how hot, cold, wet, or windy it might be!

Date:

Astronomy

Nov. 24, 2013 Rise Set
Actual Time 6:45 AM EST 4:18 PM EST
Civil Twilight 6:15 AM EST 4:49 PM EST
Nautical Twilight 5:41 AM EST 5:23 PM EST
Astronomical Twilight 5:07 AM EST 5:56 PM EST
Moon 10:44 PM EST (11/24) 11:29 AM EST (11/24)
Length of Visible Light 10h 34m
Length of Day
9h 32m
Waning Gibbous, 61% of the Moon is Illuminated
Nov 24
Waning Gibbous
Nov 25
Last Quarter
Dec 2
New
Dec 9
First Quarter
Dec 17
Full

Hourly Weather History & Observations

Time (EST) Temp. Windchill Dew Point Humidity Pressure Visibility Wind Dir Wind Speed Gust Speed Precip Events Conditions
12:51 AM 30.0 °F 16.9 °F 10.9 °F 45% 29.84 in 10.0 mi WNW 21.9 mph 36.8 mph N/A   Partly Cloudy
1:51 AM 28.0 °F 13.0 °F 9.0 °F 45% 29.86 in 10.0 mi WNW 26.5 mph 34.5 mph N/A   Partly Cloudy
2:51 AM 26.1 °F 14.0 °F 5.0 °F 41% 29.86 in 10.0 mi WNW 15.0 mph 33.4 mph N/A   Clear
3:51 AM 25.0 °F 10.9 °F 5.0 °F 43% 29.86 in 10.0 mi WNW 19.6 mph 32.2 mph N/A   Clear
4:51 AM 24.1 °F 11.0 °F 5.0 °F 44% 29.87 in 10.0 mi WNW 16.1 mph 29.9 mph N/A   Clear
5:51 AM 23.0 °F 8.3 °F 5.0 °F 46% 29.87 in 10.0 mi WNW 19.6 mph 31.1 mph N/A   Clear
6:51 AM 21.9 °F 9.2 °F 6.1 °F 51% 29.89 in 10.0 mi WNW 13.8 mph 24.2 mph N/A   Partly Cloudy
7:51 AM 21.9 °F 7.8 °F 1.9 °F 42% 29.92 in 10.0 mi WNW 17.3 mph 31.1 mph N/A   Partly Cloudy
8:51 AM 21.9 °F 6.2 °F 1.9 °F 42% 29.95 in 10.0 mi WNW 21.9 mph 31.1 mph N/A   Partly Cloudy
9:51 AM 23.0 °F 8.7 °F 1.9 °F 40% 29.96 in 10.0 mi WNW 18.4 mph 29.9 mph N/A   Partly Cloudy
10:51 AM 24.1 °F 10.6 °F 1.0 °F 37% 29.96 in 10.0 mi WNW 17.3 mph 35.7 mph N/A   Partly Cloudy
11:51 AM 24.1 °F 9.4 °F -0.9 °F 34% 29.96 in 10.0 mi WNW 20.7 mph 35.7 mph N/A   Partly Cloudy
12:51 PM 26.1 °F 12.0 °F -0.9 °F 31% 29.97 in 10.0 mi NW 20.7 mph 33.4 mph N/A   Partly Cloudy
1:51 PM 27.0 °F 15.6 °F -0.9 °F 30% 29.98 in 10.0 mi NW 13.8 mph 32.2 mph N/A   Partly Cloudy
2:51 PM 28.0 °F 13.3 °F -5.1 °F 24% 30.01 in 10.0 mi NNW 25.3 mph 40.3 mph N/A   Partly Cloudy
3:51 PM 27.0 °F 12.2 °F -7.1 °F 23% 30.05 in 10.0 mi NW 24.2 mph 34.5 mph N/A   Partly Cloudy
4:51 PM 26.1 °F 11.6 °F -7.1 °F 23% 30.08 in 10.0 mi NW 21.9 mph 42.6 mph N/A   Partly Cloudy
5:51 PM 25.0 °F 10.6 °F -6.0 °F 26% 30.12 in 10.0 mi NW 20.7 mph 36.8 mph N/A   Partly Cloudy
6:51 PM 24.1 °F 9.0 °F -4.0 °F 29% 30.14 in 10.0 mi NW 21.9 mph 36.8 mph N/A   Clear
7:51 PM 24.1 °F 9.8 °F -5.1 °F 28% 30.16 in 10.0 mi WNW 19.6 mph 34.5 mph N/A   Clear
8:51 PM 23.0 °F 9.6 °F -2.9 °F 32% 30.18 in 10.0 mi WNW 16.1 mph 23.0 mph N/A   Clear
9:51 PM 23.0 °F 10.1 °F -2.0 °F 34% 30.18 in 10.0 mi NW 15.0 mph 29.9 mph N/A   Clear
10:51 PM 21.9 °F 10.4 °F -0.9 °F 37% 30.20 in 10.0 mi WNW 11.5 mph 24.2 mph N/A   Clear
11:51 PM 21.9 °F 7.8 °F -0.0 °F 38% 30.23 in 10.0 mi WNW 17.3 mph 23.0 mph N/A   Clear